This is the latest recevied weather packets stored in our database for station/object DL3TR-13. If no packets are shown the sender has not sent any weather packets the latest 10 day(s).
| Time | Temp. | Humidity | Pressure | Rain* | Wind** | Luminosity | Snow |
|---|---|---|---|---|---|---|---|
| 1777590791 | 7.22° C | 39% | 1023 hPa | 0 mm | - | 0 W/m² | - |
| 1777590192 | 7.22° C | 38% | 1023.1 hPa | 0 mm | - | 0 W/m² | - |
| 1777589592 | 7.22° C | 38% | 1022.9 hPa | 0 mm | - | 0 W/m² | - |
| 1777588992 | 7.22° C | 39% | 1023.1 hPa | 0 mm | - | 0 W/m² | - |
| 1777588392 | 7.22° C | 39% | 1023.1 hPa | 0 mm | - | 0 W/m² | - |
| 1777587793 | 6.67° C | 39% | 1023.1 hPa | 0 mm | - | 0 W/m² | - |
| 1777587193 | 7.78° C | 37% | 1023.1 hPa | 0 mm | - | 0 W/m² | - |
| 1777586593 | 8.33° C | 34% | 1023.1 hPa | 0 mm | - | 0 W/m² | - |
| 1777585993 | 8.89° C | 33% | 1023.1 hPa | 0 mm | - | 0 W/m² | - |
| 1777585393 | 8.89° C | 34% | 1023.1 hPa | 0 mm | - | 0 W/m² | - |
| 1777584793 | 8.89° C | 34% | 1023.1 hPa | 0 mm | - | 0 W/m² | - |
| 1777584193 | 8.89° C | 34% | 1023.2 hPa | 0 mm | - | 0 W/m² | - |
| 1777583593 | 8.89° C | 34% | 1023 hPa | 0 mm | - | 0 W/m² | - |
| 1777582993 | 8.89° C | 34% | 1023.1 hPa | 0 mm | - | 0 W/m² | - |
| 1777582393 | 9.44° C | 33% | 1023.1 hPa | 0 mm | - | 0 W/m² | - |
| 1777581793 | 9.44° C | 32% | 1023.1 hPa | 0 mm | - | 0 W/m² | - |
| 1777581193 | 9.44° C | 32% | 1023.1 hPa | 0 mm | - | 0 W/m² | - |
| 1777580594 | 9.44° C | 31% | 1023 hPa | 0 mm | - | 0 W/m² | - |
| 1777579993 | 10° C | 31% | 1023 hPa | 0 mm | - | 0 W/m² | - |
| 1777579393 | 10° C | 31% | 1023 hPa | 0 mm | - | 0 W/m² | - |
| 1777578793 | 10° C | 31% | 1022.9 hPa | 0 mm | - | 0 W/m² | - |
| 1777578193 | 10.56° C | 30% | 1022.7 hPa | 0 mm | - | 0 W/m² | - |
| 1777577593 | 10.56° C | 30% | 1022.5 hPa | 0 mm | - | 0 W/m² | - |
| 1777576993 | 10.56° C | 30% | 1022.5 hPa | 0 mm | - | 0 W/m² | - |
| 1777576393 | 10.56° C | 30% | 1022.5 hPa | 0 mm | - | 0 W/m² | - |
* Rain latest hour (hover to see other rain measurements)
** Current wind speed in m/s (hover to see current wind gust speed)